Kosmos-417

operational
NORAD ID: 5216 Int'l Des: 1971-041 Owner: OKB10 Country: SU
LEOCIRCULAR

Über Kosmos-417

Beschreibung wird geladen...

Live-Position

3D-Globus wird geladen...

Nächste Überflüge

Höhenverlauf

Altitude vs Time

uPlot chart will show altitude changes over time

Zweizeiliger Elementsatz

1 05216U 71041G 26061.59756318 -.00000005 00000-0 66874-4 0 9997
2 05216 74.0117 248.2690 0095539 0.7079 56.0565 12.61453213524333
Epoch: 2. März 2026 • Age: 24 hours

Aktueller Status

Höhe 1443.9 km
Geschwindigkeit 7.14 km/s
Subsatellitenpunkt 69.95°N, 145.85°W
Typ other

Große Konstellationen

Loading constellations...